Time,TemperatureF,DewpointF,PressureIn,WindDirection,WindDirectionDegrees,WindSpeedMPH,WindSpeedGustMPH,Humidity,HourlyPrecipIn,Conditions,Clouds,dailyrainin,SoftwareType,DateUTC
2015-07-31 00:03:00,61.0,60.0,-100.00,West,275,2.0,4.0,99,-99.99,,,-99.99,,2015-07-31 05:03:00,
2015-07-31 00:23:00,61.0,60.0,-100.00,West,275,2.0,4.0,99,-99.99,,,-99.99,,2015-07-31 05:23:00,
2015-07-31 00:34:00,61.0,60.0,-100.00,West,275,2.0,4.0,99,-99.99,,,-99.99,,2015-07-31 05:34:00,
2015-07-31 00:46:00,61.0,60.0,-100.00,West,275,2.0,4.0,99,-99.99,,,-99.99,,2015-07-31 05:46:00,
2015-07-31 00:54:00,61.0,60.0,-100.00,West,275,2.0,4.0,99,-99.99,,,-99.99,,2015-07-31 05:54:00,
2015-07-31 01:23:00,58.0,58.0,-100.00,SW,225,0.0,2.0,99,-99.99,,,-99.99,,2015-07-31 06:23:00,
2015-07-31 01:34:00,58.0,58.0,-100.00,SW,225,0.0,2.0,99,-99.99,,,-99.99,,2015-07-31 06:34:00,
2015-07-31 01:44:00,58.0,58.0,-100.00,SW,225,0.0,2.0,99,-99.99,,,-99.99,,2015-07-31 06:44:00,
2015-07-31 02:02:00,57.0,57.0,-100.00,WSW,255,2.0,4.0,99,-99.99,,,-99.99,,2015-07-31 07:02:00,
2015-07-31 02:03:00,58.0,58.0,-100.00,SW,225,0.0,2.0,99,-99.99,,,-99.99,,2015-07-31 07:03:00,
2015-07-31 02:23:00,57.0,57.0,-100.00,WSW,255,2.0,4.0,99,-99.99,,,-99.99,,2015-07-31 07:23:00,
2015-07-31 02:33:00,57.0,57.0,-100.00,WSW,255,2.0,4.0,99,-99.99,,,-99.99,,2015-07-31 07:33:00,
2015-07-31 02:44:00,57.0,57.0,-100.00,WSW,255,2.0,4.0,99,-99.99,,,-99.99,,2015-07-31 07:44:00,
2015-07-31 02:54:00,57.0,57.0,-100.00,WSW,255,2.0,4.0,99,-99.99,,,-99.99,,2015-07-31 07:54:00,
2015-07-31 03:03:00,57.0,57.0,-100.00,WSW,250,1.0,6.0,99,-99.99,,,-99.99,,2015-07-31 08:03:00,
2015-07-31 03:23:00,57.0,57.0,-100.00,WSW,250,1.0,6.0,99,-99.99,,,-99.99,,2015-07-31 08:23:00,
2015-07-31 03:34:00,57.0,57.0,-100.00,WSW,250,1.0,6.0,99,-99.99,,,-99.99,,2015-07-31 08:34:00,
2015-07-31 03:44:00,57.0,57.0,-100.00,WSW,250,1.0,6.0,99,-99.99,,,-99.99,,2015-07-31 08:44:00,
2015-07-31 03:53:00,57.0,57.0,-100.00,WSW,250,1.0,6.0,99,-99.99,,,-99.99,,2015-07-31 08:53:00,
2015-07-31 04:02:00,57.0,57.0,-100.00,SW,235,2.0,7.0,99,-99.99,,,-99.99,,2015-07-31 09:02:00,
2015-07-31 04:23:00,57.0,57.0,-100.00,SW,235,2.0,7.0,99,-99.99,,,-99.99,,2015-07-31 09:23:00,
2015-07-31 04:33:00,57.0,57.0,-100.00,SW,235,2.0,7.0,99,-99.99,,,-99.99,,2015-07-31 09:33:00,
2015-07-31 04:44:00,57.0,57.0,-100.00,SW,235,2.0,7.0,99,-99.99,,,-99.99,,2015-07-31 09:44:00,
2015-07-31 04:54:00,57.0,57.0,-100.00,SW,235,2.0,7.0,99,-99.99,,,-99.99,,2015-07-31 09:54:00,
2015-07-31 05:03:00,57.0,57.0,-100.00,SW,225,1.0,3.0,99,-99.99,,,-99.99,,2015-07-31 10:03:00,
2015-07-31 05:24:00,57.0,57.0,-100.00,SW,225,1.0,-999.0,99,-99.99,,,-99.99,,2015-07-31 10:24:00,
2015-07-31 05:34:00,57.0,57.0,-100.00,SW,225,1.0,3.0,99,-99.99,,,-99.99,,2015-07-31 10:34:00,
2015-07-31 05:44:00,57.0,57.0,-100.00,SW,225,1.0,3.0,99,-99.99,,,-99.99,,2015-07-31 10:44:00,
2015-07-31 05:54:00,57.0,57.0,-100.00,SW,225,1.0,3.0,99,-99.99,,,-99.99,,2015-07-31 10:54:00,
2015-07-31 06:03:00,58.0,58.0,-100.00,SW,235,3.0,7.0,99,-99.99,,,-99.99,,2015-07-31 11:03:00,
2015-07-31 06:23:00,58.0,58.0,-100.00,SW,235,3.0,7.0,99,-99.99,,,-99.99,,2015-07-31 11:23:00,
2015-07-31 06:36:00,58.0,58.0,-100.00,SW,235,3.0,7.0,99,-99.99,,,-99.99,,2015-07-31 11:36:00,
2015-07-31 06:44:00,58.0,58.0,-100.00,SW,235,3.0,7.0,99,-99.99,,,-99.99,,2015-07-31 11:44:00,
2015-07-31 06:54:00,58.0,58.0,-100.00,SW,235,3.0,7.0,99,-99.99,,,-99.99,,2015-07-31 11:54:00,
2015-07-31 07:02:00,61.0,61.0,-100.00,SSW,195,2.0,7.0,99,-99.99,,,-99.99,,2015-07-31 12:02:00,
2015-07-31 07:23:00,61.0,61.0,-100.00,SSW,195,2.0,7.0,99,-99.99,,,-99.99,,2015-07-31 12:23:00,
2015-07-31 07:34:00,61.0,61.0,-100.00,SSW,195,2.0,7.0,99,-99.99,,,-99.99,,2015-07-31 12:34:00,
2015-07-31 07:44:00,61.0,61.0,-100.00,SSW,195,2.0,7.0,99,-99.99,,,-99.99,,2015-07-31 12:44:00,
2015-07-31 07:54:00,61.0,61.0,-100.00,SSW,195,2.0,7.0,99,-99.99,,,-99.99,,2015-07-31 12:54:00,